This demonstration page uses our WeatherBlox Daily Observations layout. Learn more.

Hourly Observations for December 18, 2016

Temp ( °F °C ) Dew Point ( °F °C ) Humidity (%) Winds ( mph kmh ) Pressure ( in mb ) Visibility ( mi km ) Precip ( " mm )
12:15 am 00:15 Cloudy 50 10 50 10 100 100 undefined N/A 29.83 1010 7 11.265408 0 0
12:35 am 00:35 Cloudy 52 11 52 11 100 100 undefined N/A 29.83 1010 7 11.265408 0 0
12:55 am 00:55 Cloudy 52 11 52 11 100 100 undefined N/A 29.8 1009 10 16.09344 0 0
1:15 am 01:15 Cloudy 52 11 52 11 100 100 undefined N/A 29.8 1009 10 16.09344 0 0
1:35 am 01:35 Cloudy 54 12 52 11 94 94 undefined N/A 29.8 1009 10 16.09344 0 0
1:55 am 01:55 Cloudy 54 12 52 11 94 94 undefined N/A 29.8 1009 10 16.09344 0 0
2:15 am 02:15 Mostly Cloudy 54 12 54 12 100 100 undefined N/A 29.8 1009 10 16.09344 0 0
2:35 am 02:35 Cloudy 54 12 54 12 100 100 undefined N/A 29.8 1009 10 16.09344 0 0
2:55 am 02:55 Cloudy 55 13 54 12 94 94 undefined N/A 29.8 1009 10 16.09344 0 0
3:15 am 03:15 Cloudy 55 13 54 12 94 94 undefined N/A 29.8 1009 10 16.09344 0 0
3:35 am 03:35 Cloudy 55 13 54 12 94 94 undefined N/A 29.77 1008 10 16.09344 0 0
3:55 am 03:55 Cloudy 55 13 55 13 100 100 undefined N/A 29.77 1008 10 16.09344 0 0
4:15 am 04:15 Cloudy 57 14 55 13 94 94 undefined N/A 29.77 1008 10 16.09344 0 0
4:35 am 04:35 Cloudy 57 14 55 13 94 94 undefined N/A 29.77 1008 10 16.09344 0 0
4:55 am 04:55 Cloudy 57 14 55 13 94 94 undefined N/A 29.74 1007 10 16.09344 0 0
5:15 am 05:15 Cloudy 59 15 55 13 88 88 undefined N/A 29.74 1007 10 16.09344 0 0
5:35 am 05:35 Mostly Cloudy 59 15 55 13 88 88 undefined N/A 29.71 1006 10 16.09344 0 0
5:55 am 05:55 Mostly Cloudy 59 15 55 13 88 88 undefined N/A 29.74 1007 10 16.09344 0 0
6:15 am 06:15 Cloudy 59 15 57 14 94 94 undefined N/A 29.74 1007 10 16.09344 0 0
6:35 am 06:35 Cloudy 59 15 57 14 94 94 undefined N/A 29.8 1009 10 16.09344 0 0
6:55 am 06:55 Cloudy 59 15 57 14 94 94 undefined N/A 29.8 1009 10 16.09344 0 0
7:15 am 07:15 Cloudy 59 15 55 13 88 88 undefined N/A 29.8 1009 10 16.09344 0 0
7:35 am 07:35 Cloudy 59 15 55 13 88 88 undefined N/A 29.83 1010 10 16.09344 0 0
7:55 am 07:55 Cloudy with Light Rain 59 15 57 14 94 94 undefined N/A 29.83 1010 10 16.09344 0 0
8:15 am 08:15 Cloudy 59 15 59 15 100 100 undefined N/A 29.8 1009 10 16.09344 0 0
8:35 am 08:35 Cloudy 59 15 59 15 100 100 undefined N/A 29.83 1010 10 16.09344 0 0
8:55 am 08:55 Cloudy 61 16 59 15 94 94 undefined N/A 29.83 1010 10 16.09344 0 0
9:15 am 09:15 Cloudy 59 15 59 15 100 100 undefined N/A 29.83 1010 10 16.09344 0 0
9:35 am 09:35 Cloudy 61 16 59 15 94 94 undefined N/A 29.83 1010 10 16.09344 0 0
9:55 am 09:55 Cloudy 61 16 59 15 94 94 undefined N/A 29.85 1011 10 16.09344 0 0
10:15 am 10:15 Cloudy 61 16 59 15 94 94 undefined N/A 29.88 1012 10 16.09344 0 0
10:35 am 10:35 Cloudy 61 16 59 15 94 94 undefined N/A 29.91 1013 10 16.09344 0 0
10:55 am 10:55 Cloudy with Light Rain 61 16 59 15 94 94 undefined N/A 29.91 1013 5 8.04672 0 0
11:15 am 11:15 Cloudy 61 16 59 15 94 94 undefined N/A 29.91 1013 10 16.09344 0 0
11:35 am 11:35 Cloudy 61 16 59 15 94 94 undefined N/A 29.91 1013 10 16.09344 0 0
11:55 am 11:55 Cloudy with Light Rain 59 15 59 15 100 100 undefined N/A 29.91 1013 10 16.09344 0 0
12:15 pm 12:15 Cloudy with Light Rain 61 16 61 16 100 100 undefined N/A 29.91 1013 10 16.09344 0 0
12:35 pm 12:35 Mostly Cloudy 61 16 61 16 100 100 undefined N/A 29.91 1013 10 16.09344 0 0
12:55 pm 12:55 Cloudy 61 16 59 15 94 94 undefined N/A 29.94 1014 10 16.09344 0.01 0.254
1:15 pm 13:15 Cloudy 48 9 43 6 82 82 undefined N/A 30.03 1017 10 16.09344 0 0
1:35 pm 13:35 Cloudy 46 8 41 5 82 82 undefined N/A 30.06 1018 10 16.09344 0 0
1:55 pm 13:55 Cloudy 45 7 36 2 71 71 undefined N/A 30.09 1019 10 16.09344 0 0
2:15 pm 14:15 Cloudy 45 7 36 2 71 71 undefined N/A 30.12 1020 10 16.09344 0 0
2:35 pm 14:35 Mostly Cloudy 43 6 34 1 71 71 undefined N/A 30.15 1021 10 16.09344 0 0
2:55 pm 14:55 Cloudy 43 6 32 0 66 66 undefined N/A 30.15 1021 10 16.09344 0 0
3:15 pm 15:15 Mostly Cloudy 43 6 32 0 66 66 undefined N/A 30.15 1021 10 16.09344 0 0
3:35 pm 15:35 Mostly Cloudy 43 6 32 0 66 66 undefined N/A 30.18 1022 10 16.09344 0 0
3:55 pm 15:55 Cloudy 43 6 32 0 66 66 undefined N/A 30.24 1024 10 16.09344 0 0
4:15 pm 16:15 Mostly Cloudy 41 5 32 0 70 70 undefined N/A 30.24 1024 10 16.09344 0 0
4:35 pm 16:35 Partly Cloudy 41 5 32 0 70 70 undefined N/A 30.27 1025 10 16.09344 0 0
4:55 pm 16:55 Partly Cloudy 41 5 32 0 70 70 undefined N/A 30.3 1026 10 16.09344 0 0
5:15 pm 17:15 Clear 41 5 32 0 70 70 undefined N/A 30.33 1027 10 16.09344 0 0
5:35 pm 17:35 Mostly Cloudy 41 5 32 0 70 70 undefined N/A 30.36 1028 10 16.09344 0 0
5:55 pm 17:55 Cloudy 39 4 32 0 75 75 undefined N/A 30.36 1028 10 16.09344 0 0
6:15 pm 18:15 Mostly Cloudy 37 3 30 -1 75 75 undefined N/A 30.36 1028 10 16.09344 0 0
6:35 pm 18:35 Partly Cloudy 37 3 30 -1 75 75 undefined N/A 30.39 1029 10 16.09344 0 0
6:55 pm 18:55 Partly Cloudy 37 3 30 -1 75 75 undefined N/A 30.39 1029 10 16.09344 0 0
7:15 pm 19:15 Partly Cloudy 37 3 28 -2 70 70 undefined N/A 30.42 1030 10 16.09344 0 0
7:35 pm 19:35 Clear 37 3 28 -2 70 70 undefined N/A 30.42 1030 10 16.09344 0 0
7:55 pm 19:55 Mostly Cloudy 36 2 28 -2 75 75 undefined N/A 30.45 1031 10 16.09344 0 0
8:15 pm 20:15 Cloudy 36 2 28 -2 75 75 undefined N/A 30.48 1032 10 16.09344 0 0
8:35 pm 20:35 Cloudy 36 2 27 -3 70 70 undefined N/A 30.48 1032 10 16.09344 0 0
8:55 pm 20:55 Mostly Cloudy 36 2 27 -3 70 70 undefined N/A 30.48 1032 10 16.09344 0 0
9:15 pm 21:15 Mostly Cloudy 36 2 27 -3 70 70 undefined N/A 30.5 1033 10 16.09344 0 0
9:35 pm 21:35 Cloudy 36 2 27 -3 70 70 undefined N/A 30.53 1034 10 16.09344 0 0
9:55 pm 21:55 Cloudy 36 2 27 -3 70 70 undefined N/A 30.53 1034 10 16.09344 0 0
10:15 pm 22:15 Mostly Cloudy 36 2 27 -3 70 70 undefined N/A 30.53 1034 10 16.09344 0 0
10:35 pm 22:35 Partly Cloudy 36 2 27 -3 70 70 undefined N/A 30.53 1034 10 16.09344 0 0
10:55 pm 22:55 Mostly Cloudy 36 2 27 -3 70 70 undefined N/A 30.53 1034 10 16.09344 0 0
11:15 pm 23:15 Mostly Cloudy 34 1 25 -4 70 70 undefined N/A 30.53 1034 10 16.09344 0 0
11:35 pm 23:35 Partly Cloudy 34 1 25 -4 70 70 undefined N/A 30.53 1034 10 16.09344 0 0
11:55 pm 23:55 Clear 34 1 23 -5 65 65 undefined N/A 30.53 1034 10 16.09344 0 0

Powered by AerisWeather